www.pogodaiklimat.ru

Погода и климат >> Архив погоды >> Канада >> Toronto


АРХИВ ПОГОДЫ в Toronto

Время (UTC), дата Ветер
(напр.,м/с)
 
Видим.   Явления Облачность Т
(С)
Тd
(С)
f
(%)
Тe
(С)
Тes
(С)
Комфортность P
(гПа)
Po
(гПа)
Тmin
(С)
Tmax
(С)
R
(мм)
R24
(мм)
S
(см)
18 11.12 С 1 24 км {снег} 10/10 600 м
[Cu Sc]
-4.7 -10.5 64 -5 -5 по сезону 1015.5 993.9 -7.2 -4.0 0.0 <0.5
21 11.12 ЮВ 5 2400 м 9/9 200 м
[]
-4.1 -6.8 81 -11 -11 холодно 1014.0 992.4
00 12.12 Ю 2 4800 м слабый снег н/о -4.2 -6.0 87 -8 -8 по сезону 1011.3 989.7 -7.2 -3.4 2 4
03 12.12 СВ 2 17 км 10/10 300 м
[]
-3.0 -5.0 86 -6 -6 по сезону 1008.4 986.9
06 12.12 СВ 3 1600 м слабый снег н/о -2.9 -4.4 89 -8 -8 по сезону 1004.7 983.3 -7.2 -2.7 1 9
09 12.12 С 3 3200 м 3/3 300 м
[]
-3.0 -4.2 91 -8 -8 по сезону 1001.5 980.2
12 12.12 З 3 6000 м слабый снег 10/10 200 м
[Sc]
-3.2 -4.4 91 -9 -9 по сезону 1000.5 979.2 -4.3 -2.7 3 10
15 12.12 З 9 12 км 10/10 300 м
[]
-3.5 -7.1 76 -12 -12 холодно 1000.9 979.6
18 12.12 З 10 24 км позёмок {снег} 9/8 600 м
[Cu Sc Ac trans]
-5.5 -12.5 58 -15 -15 очень
холодно
1002.0 980.7 -5.8 -2.6 0.4 9
21 12.12 З 9 24 км 8/8 600 м
[]
-7.7 -15.1 55 -17 -17 очень
холодно
1003.7 982.3
00 13.12 З 9 24 км {ливн. осадки} 8/3 1500 м
[Sc Ac As Ci fib]
-10.1 -16.4 60 -20 -20 очень
холодно
1004.5 983.0 -10.1 -2.6 0.0 8
03 13.12 СЗ 8 24 км 5/5 300 м
[]
-10.6 -16.8 60 -20 -20 очень
холодно
1004.3 982.8
06 13.12 СЗ 6 6000 м слабый снег 8/8 200 м
[Sc]
-11.7 -15.3 75 -21 -21 очень
холодно
1004.1 982.5 -11.7 -2.6 0.4 161
09 13.12 СЗ 8 24 км 5/5 300 м
[]
-11.9 -16.5 69 -22 -22 очень
холодно
1005.4 983.7
12 13.12 СЗ 6 24 км {снег} 1/1 600 м
[Sc]
-12.2 -16.8 69 -21 -21 очень
холодно
1006.9 985.1 -12.9 -2.6 0.0 7
15 13.12 СЗ 5 24 км 3/3 600 м
[]
-10.7 -16.2 64 -19 -18 очень
холодно
1007.7 985.9
18 13.12 З 5 24 км 4/1 600 м
[Cu Sc Ci fib]
-7.5 -15.9 51 -15 -13 очень
холодно
1006.1 984.4 -12.9 -7.5
21 13.12 СЗ 4 24 км 8/8 600 м
[]
-8.0 -16.0 53 -14 -14 очень
холодно
1004.9 983.2
00 14.12 СВ 3 24 км 10/10 1500 м
[Sc]
-8.6 -15.1 59 -14 -14 очень
холодно
1003.2 981.5 -12.9 -7.3
03 14.12 СВ 3 6000 м 10/10 300 м
[]
-9.7 -13.2 76 -16 -16 очень
холодно
1003.4 981.7
06 14.12 С 6 8000 м слабый снег 10/10 200 м
[Cu Sc]
-10.8 -13.7 79 -19 -19 очень
холодно
1003.2 981.6 -12.9 -7.3 1 10
09 14.12 С 8 24 км 4/4 1500 м
[]
-13.9 -17.6 74 -24 -24 очень
холодно
1006.1 984.4
12 14.12 СЗ 5 24 км {снег} 3/3 300 м
[Sc]
-14.9 -18.2 76 -24 -24 очень
холодно
1009.9 988.0 -15.8 -7.3 0.0 4
15 14.12 СЗ 3 24 км ясно -13.5 -17.9 69 -19 -18 очень
холодно
1013.4 991.5
18 14.12 З 8 24 км ясно -7.7 -16.4 50 -17 -16 очень
холодно
1014.5 992.7 -15.8 -7.7
21 14.12 З 6 24 км 8/8 600 м
[]
-7.0 -13.8 58 -15 -15 очень
холодно
1015.4 993.5
00 15.12 З 4 24 км ясно -10.5 -14.7 71 -18 -18 очень
холодно
1016.7 994.7 -15.8 -6.3
03 15.12 З 4 24 км 3/3 1000 м
[]
-10.3 -13.2 79 -17 -17 очень
холодно
1017.7 995.7
06 15.12 ЮЗ 3 24 км ясно -11.2 -14.6 76 -17 -17 очень
холодно
1016.9 995.0 -15.8 -6.3 201
09 15.12 ЮЗ 3 24 км ясно -11.0 -14.5 75 -16 -16 очень
холодно
1015.5 993.7
12 15.12 ЮЗ 4 24 км 9/8 1000 м
[Sc Ac As]
-8.9 -12.5 75 -16 -16 очень
холодно
1014.8 992.9 -12.2 -6.3 3
15 15.12 ЮЗ 5 24 км 9/9 1500 м
[]
-6.9 -12.4 65 -14 -14 холодно 1013.6 991.8
18 15.12 ЮЗ 4 16 км осадки на расстоянии {снег} 10/10 1000 м
[Sc]
-5.0 -9.9 68 -11 -11 холодно 1009.8 988.1 -12.2 -4.9 0.0 3
21 15.12 Ю 3 6000 м 5/5 600 м
[]
-4.5 -7.3 81 -9 -9 прохладно 1007.5 985.9
00 16.12 З 6 24 км слабый снег 10/1 600 м
[Frnb Ac As]
-4.5 -7.5 80 -12 -12 холодно 1007.3 985.7 -11.9 -4.2 0.2 3
03 16.12 З 8 24 км 1/0 2000 м
[]
-4.9 -9.2 72 -14 -14 холодно 1008.7 987.1
06 16.12 ЮЗ 6 24 км {снег} ясно -6.1 -10.8 69 -14 -14 холодно 1010.1 988.5 -11.9 -4.0 0.0 31
09 16.12 ЮЗ 5 24 км 10/0
[]
-6.3 -11.8 65 -13 -13 прохладно 1011.4 989.8
12 16.12 ЮЗ 6 24 км 9/9 1000 м
[Sc]
-5.1 -9.5 71 -12 -12 прохладно 1013.0 991.4 -6.8 -4.0 2
15 16.12 З 6 17 км 10/10 600 м
[]
-4.1 -8.0 74 -11 -11 прохладно 1014.8 993.2
18 16.12 С 6 24 км {снег} 5/1 600 м
[Sc Ac As Cc]
-5.8 -11.9 62 -13 -13 очень
холодно
1016.7 995.0 -6.8 -4.0 0.2 2
21 16.12 С 6 24 км 4/0
[]
-6.7 -13.1 60 -14 -14 очень
холодно
1019.6 997.8
00 17.12 С 4 24 км 9/4 1500 м
[Sc Ac As]
-7.5 -12.7 66 -14 -14 очень
холодно
1023.0 1001.1 -7.5 -4.0
03 17.12 С 3 24 км 6/0
[]
-8.9 -13.5 69 -15 -15 очень
холодно
1024.2 1002.3
06 17.12 С 3 24 км 8/0
[Ac trans Ci fib]
-10.0 -13.9 73 -16 -16 очень
холодно
1025.1 1003.1 -10.3 -4.0 8
09 17.12 С 3 24 км 8/8 600 м
[]
-11.4 -14.7 77 -17 -17 очень
холодно
1026.7 1004.6
12 17.12 С 2 24 км 6/6 1500 м
[Sc]
-12.2 -15.5 76 -16 -16 холодно 1027.5 1005.4 -12.2 -4.0 2
15 17.12 С 2 24 км 6/0
[]
-12.0 -16.0 72 -17 -16 очень
холодно
1028.1 1005.9
18 17.12 СВ 2 24 км 9/0
[Ac As Cs]
-8.6 -14.7 61 -13 -11 очень
холодно
1025.4 1003.3 -13.5 -8.5
21 17.12 СВ 2 24 км 10/10 300 м
[]
-6.9 -13.3 60 -11 -11 холодно 1023.9 1001.9
00 18.12 СВ 4 16 км 10/10 300 м
[Sc]
-6.5 -9.4 80 -13 -13 холодно 1023.0 1001.0 -13.5 -6.4
03 18.12 СВ 4 12 км 10/10 200 м
[]
-7.1 -9.8 81 -14 -14 холодно 1020.5 998.5
06 18.12 С 3 12 км 10/10 200 м
[Sc]
-7.2 -10.5 77 -13 -13 прохладно 1018.9 997.0 -13.5 -6.4
09 18.12 СВ 2 12 км 10/10 100 м
[]
-5.6 -8.2 82 -9 -9 по сезону 1016.2 994.5
12 18.12 С 1 8000 м слабый снег 10/10 100 м
[Sc]
-4.3 -6.5 85 -5 -5 по сезону 1015.5 993.8 -7.4 -6.4 0.0 2
15 18.12 ЮЗ 2 4000 м 10/10 100 м
[]
-1.3 -2.7 90 -5 -5 по сезону 1014.1 992.5

 

Местоположение метеостанции Toronto (Канада): широта 43.67 долгота -79.63 высота над уровнем моря 173 м.

В архиве по умолчанию представлена погода в Toronto за последнюю неделю. Архивные данные за месяц целиком и за предыдущие месяцы, начиная с января 2011 года, Вы можете получить, выбрав интересующий диапазон дат из раскрывающегося списка и нажав кнопку "Ввод!".

Внимание! Время в таблицах - всемирное. Для получения местного времени необходимо прибавить поправку, которая в Toronto равна -5 ч.

Смотрите также архив погоды в соседних городах и на ближайших метеорологических станциях:

Погода в Toronto Aes Hq (Канада) (18 км)
Погода в Toronto City (Канада) (19 км)
Погода в Toronto Island Arpt (Канада) (19 км)
Погода в Toronto Buttonville (Канада) (31 км)
Погода в Buttonville (Канада) (31 км)
Погода в Burlington Piers (Канада) (43 км)
Погода в Hamilton Rbg Cs (Канада) (49 км)
Погода в Guelph Turfgrass (Канада) (49 км)
Погода в Vineland Station Rc (Канада) (58 км)
Погода в Port Weller (Канада) (58 км)

Пояснения к столбцам:

Ветер - указаны скорость ветра в м/с - средняя за 10 мин, порывы в срок и между сроками (в фигурных скобках) и направление, откуда дует ветер: С - северный, СВ - северо-восточный, В - восточный, ЮВ - юго-восточный, Ю - южный, ЮЗ - юго-западный, З - западный, СЗ - северо-западный.
Видимость - горизонтальная дальность видимости в метрах или километрах. При видимости от 1 до 10 км при отсутствии осадков обычно наблюдается дымка, при ухудшении видимости до 1 км и менее - туман. В сухую погоду видимость может ухудшаться дымом, пылью или мглою.
Явления - указаны атмосферные явления, наблюдавшиеся в срок или в последний час перед сроком; фигурными скобками обозначены явления, наблюдавшиеся между сроками (за 1-3 часа до срока); квадратными скобками обозначены град или гололедные отложения с указанием их диаметра в мм.
Облачность - указаны через наклонную черту общая и нижняя облачность в баллах и высота нижней границы облаков в метрах; квадратными скобками обозначены формы облаков: Ci - перистые, Cs - перисто-слоистые, Cc - перисто-кучевые, Ac - высококучевые, As - высокослоистые, Sc - слоисто-кучевые, Ns - слоисто-дождевые, Cu - кучевые, Cb - кучево-дождевые. Подробнее классификацию облаков см. в Атласе облаков (PDF).
T - Температура воздуха - температура, измеренная на высоте 2 м над землей.
Td - Температура точки росы - температура, при понижении до которой содержащийся в воздухе водяной пар достигнет насыщения.
f - Относительная влажность воздуха - влажноcть воздуха, измеренная на высоте 2 м над землей.
Te - Эффективная температура - температура, которую ощущает одетый по сезону человек в тени. Характеристика душности погоды. При расчете учитывается влияние влажности воздуха и скорости ветра на теплоощущения человека.
Tes - Эффективная температура на солнце - температура, которую ощущает человек, с поправкой на солнечный нагрев. Характеристика знойности погоды. Зависит от высоты солнца над горизонтом, облачности и скорости ветра. Ночью, в пасмурную погоду, а также при ветре 12 м/с и более поправка равна нулю.
P - Атмосферное давление - приведенное к уровню моря атмосферное давление.
Po - Атмосферное давление - измеренное на уровне метеостанции атмосферное давление.
Tmin - Минимальная температура - минимум температуры воздуха на высоте 2 м над землей.
Tmax - Максимальная температура - максимум температуры воздуха на высоте 2 м над землей.
R - Количество осадков - Количество выпавших осадков за период времени, мм. При наведении курсора мыши на число - период времени, за который выпало указанное количество осадков.
R24 - Количество осадков - Количество выпавших осадков за 24 часа, мм.
S - Снежный покров - Высота снежного покрова, см. При наведении курсора мыши на число - состояние снежного покрова и степень покрытия местности в баллах.